FLOCK 2K-19 (42886 NORAD) Tracking and Keplerian Element Data

This shows tracking and keplerian element data for the satellite.

Feedback or suggestion? Click here.




ElementValue
Catalog42886
NameFLOCK 2K-19
Epoch Orbit28607
Epoch Day225.85198112
Epoch Year2022
RAAN65.6226
Inclination96.7959
Eccentricity0.0009378
Argument of Perigee276.5716
Mean Anonmoly83.4493
Mean Motion15.93309423
Decay Rate0.00889418
L11 42886U 17042BP 22225.85198112 .00889418 34306-3 25281-2 0 9997
L22 42886 96.7959 65.6226 0009378 276.5716 83.4493 15.93309423286076

Live tracking and technical data element details for FLOCK 2K-19 (NORAD 42886). FLOCK 2K-19 can be tracked NOW for your location showing map with azimuth and elevation plus other details from your city location.

Track the satellite on the map from your city or location and see movement details for azimuth, elevation, latitude, longitude, range, height, and movement on the map or in text.







IsCatalogInMostPopularTable: catalog: 42886, numindb: 590
Update: records affected: 1



GetName: 42886 FLOCK 2K-19

Hit Count: updated at: Wed, 28 Sep 2022 22:18:26 GMT